Wetbulb
79.43 79.44 79.68 79.06 79.57 80.47 79.94 79.80 79.84 78.72 78.43 76.77 76.26 75.02 72.90 72.15 72.25 72.68 71.70 70.69 70.54 70.86 70.83 69.21 70.11 71.46 67.69 67.05 66.69 66.49 64.78 65.15 61.85 64.37 65.39 68.00 71.16 70.22 69.23 69.64 68.97 69.46 67.89
78.90 79.89 79.71 79.93 79.80 79.22 79.95 80.23 80.09 78.69 78.61 76.97 75.99 74.37 72.97 70.74 68.71 71.92 70.26 70.17 68.63 68.34 68.73 70.09 69.11 68.25 71.39 71.67 67.51 70.56 68.92 68.57 64.67 65.13 66.17 65.32 68.22 69.94 70.84 70.64 68.28 66.78 67.47
78.02 78.10 79.14 78.90 79.52 79.33 79.76 79.87 79.71 79.46 78.32 75.98 75.63 74.31 72.25 72.16 72.24 72.30 71.92 69.30 69.65 69.62 69.73 70.11 69.59 70.69 70.79 68.76 69.85 67.57 67.07 67.43 67.12 63.43 63.30 64.46 64.31 63.54 65.92 69.37 67.56 66.74 66.47
76.06 76.34 78.08 78.90 79.15 79.22 80.15 79.71 79.96 79.07 78.31 75.81 74.98 73.42 72.59 71.89 71.81 71.64 71.48 71.13 71.32 70.76 70.69 70.60 70.51 70.12 70.13 70.42 69.35 70.21 68.84 67.00 66.36 64.61 63.55 63.30 64.64 65.67 66.62 63.58 63.05 62.72 63.00
77.32 77.15 78.14 79.83 79.92 79.84 79.43 80.04 79.55 78.88 77.77 75.43 74.53 72.49 71.95 70.66 70.08 71.34 70.69 69.86 70.09 69.88 69.90 69.73 70.41 70.20 68.01 67.99 68.42 67.75 68.79 66.00 64.66 63.36 62.88 63.16 63.13 63.04 62.68 63.99 63.38 63.62 62.59
78.43 78.06 79.35 80.46 80.02 79.82 79.85 79.95 78.68 77.49 76.29 74.95 72.17 70.26 69.07 68.21 64.51 64.80 69.08 68.58 71.23 70.25 69.36 70.77 70.96 68.77 67.73 65.24 64.86 64.24 64.24 65.67 65.14 62.32 62.36 61.90 63.49 63.92 63.21 62.49 62.90 61.22 58.46
79.27 79.98 80.47 81.11 80.32 80.28 79.47 78.06 76.65 74.86 74.91 73.32 71.16 68.24 67.96 70.15 62.51 62.73 64.63 69.06 69.75 70.41 71.03 70.16 69.25 68.76 67.45 67.68 65.22 63.20 62.76 62.14 61.98 65.10 64.16 63.83 63.60 64.84 64.78 63.87 63.23 61.48 59.93
79.73 79.66 80.66 80.75 79.91 79.58 78.06 76.51 74.79 74.08 73.69 72.13 70.30 69.84 70.40 70.74 62.48 61.16 64.29 69.07 69.74 69.58 71.23 71.50 71.19 70.44 69.10 67.91 67.38 65.05 65.53 67.56 66.98 65.05 65.21 65.73 65.94 65.27 63.26 62.39 62.34 61.82 61.36
77.37 78.49 79.30 78.65 78.09 77.45 75.83 75.22 74.12 72.90 72.48 70.48 69.54 68.92 69.97 71.30 59.95 59.37 63.73 68.95 68.34 70.30 71.16 71.40 70.34 69.16 64.97 60.78 64.94 63.06 63.23 64.46 63.87 61.31 60.34 58.44 57.05 56.94 58.35 59.86 58.15 57.09 56.23
77.05 77.04 78.47 78.42 77.33 75.81 75.47 74.71 74.12 73.98 71.97 70.93 69.46 69.89 67.88 71.07 58.51 57.72 62.58 66.52 66.95 68.24 69.27 70.75 62.26 64.36 57.32 57.31 63.40 62.82 63.10 64.09 64.36 64.29 64.07 61.22 59.29 61.12 57.48 60.61 60.38 57.87 57.25
76.16 76.41 76.97 76.66 76.59 76.19 75.05 74.86 73.89 73.10 71.68 70.13 68.93 70.73 72.02 70.68 69.67 55.70 56.24 66.72 67.94 67.91 67.61 67.14 66.93 55.72 54.95 53.43 54.03 62.75 61.96 60.30 62.63 61.13 60.68 60.95 62.69 62.45 60.16 62.47 63.92 60.51 57.31
77.48 76.48 76.19 76.00 74.95 73.82 73.37 73.83 72.92 71.72 70.53 70.50 70.76 70.85 70.82 72.50 61.55 55.88 54.57 55.72 61.53 66.87 67.89 67.23 66.11 54.68 54.56 52.71 53.58 55.09 53.90 53.53 58.97 58.75 59.41 59.59 59.22 57.96 59.05 60.41 62.91 62.02 60.75
76.63 76.25 75.07 74.01 73.72 73.75 73.57 71.89 69.49 70.00 68.55 69.20 67.81 69.10 70.88 71.99 69.08 56.18 54.17 54.99 56.02 62.44 64.29 54.39 53.24 51.32 50.78 50.09 50.84 54.19 53.00 57.87 58.31 58.83 58.73 57.29 57.11 58.27 61.79 60.80 62.46 63.61 63.41
73.98 72.59 72.32 72.00 71.09 71.22 70.83 69.75 68.42 67.92 68.29 69.34 68.92 68.98 68.99 68.63 67.97 65.81 61.25 62.06 56.22 58.35 56.50 59.67 57.39 55.88 52.96 55.65 56.27 55.51 58.25 59.23 59.30 57.24 55.91 57.27 57.64 56.95 56.21 56.30 54.70 54.09 53.35
73.73 72.53 71.46 70.91 70.36 68.77 66.47 65.69 68.10 65.33 63.72 68.05 68.58 68.60 66.41 64.77 65.04 59.35 58.89 61.95 64.73 59.82 62.57 63.17 61.45 61.15 60.80 60.39 59.95 59.84 58.99 60.00 57.96 57.37 56.34 55.43 54.75 54.68 54.26 54.54 53.11 52.88 52.00
71.52 71.12 70.41 69.94 69.04 68.23 65.85 61.29 45.44 46.97 44.78 44.66 46.64 57.07 62.29 51.31 45.71 43.96 43.03 45.01 46.64 48.49 60.06 60.33 60.18 60.11 59.67 59.44 59.79 59.65 59.37 57.41 57.29 56.61 55.02 54.23 53.43 52.89 52.25 52.11 52.48 52.10 51.89
71.27 71.50 70.09 68.25 69.80 69.27 68.32 67.66 65.21 54.10 43.98 42.54 43.31 45.18 48.50 47.02 42.22 41.90 41.92 43.08 44.85 46.74 57.79 59.00 59.02 59.13 59.02 58.97 58.30 57.40 56.20 56.51 57.42 54.78 53.93 53.20 52.56 52.13 51.37 51.08 51.38 51.45 51.88
71.40 61.05 69.59 68.97 68.50 68.30 67.99 67.10 66.18 64.29 62.76 60.74 46.60 49.39 41.82 41.41 41.47 41.04 41.45 44.95 54.55 51.96 58.22 58.57 58.58 58.59 58.15 57.15 56.40 55.76 55.59 55.03 54.03 53.07 51.88 51.86 51.98 51.17 50.56 50.64 50.82 50.98 51.00
70.06 68.50 69.00 68.71 68.22 66.03 66.60 66.17 65.92 65.63 64.87 62.45 56.59 50.87 45.95 40.72 40.88 41.34 42.14 57.20 59.13 59.14 59.09 58.73 58.38 57.24 56.65 56.30 55.66 55.41 54.75 52.96 50.90 49.89 51.45 51.46 51.30 50.87 50.52 50.59 50.37 47.50 48.80
67.51 62.44 65.08 67.26 65.92 65.42 65.38 64.78 64.62 64.42 63.61 60.84 61.05 59.68 55.77 52.06 55.22 56.47 56.94 59.05 59.23 58.72 58.85 58.08 57.84 57.10 56.46 55.91 55.19 53.94 52.49 51.17 51.04 51.00 50.92 50.86 51.10 50.69 50.10 49.75 49.97 49.55 50.53
66.22 65.85 62.49 66.49 65.70 65.28 65.15 64.44 64.08 63.54 62.92 62.49 61.75 59.51 52.13 58.33 60.19 59.96 59.53 59.76 59.24 58.78 58.37 57.97 57.72 57.58 56.61 55.60 53.93 52.00 50.71 50.12 50.74 50.51 50.31 50.44 50.48 49.61 50.42 50.19 49.91 49.93 50.08
66.20 66.02 65.15 65.24 64.47 64.39 64.13 63.89 63.33 62.84 62.18 62.03 59.68 57.03 47.60 60.87 60.68 60.36 60.64 60.15 59.37 59.64 59.50 58.45 57.41 56.71 55.48 53.89 52.47 50.76 49.48 49.48 50.42 50.37 49.61 49.74 49.84 49.97 49.78 49.70 49.59 49.55 49.62
64.60 64.36 64.71 64.65 64.63 60.74 62.76 63.94 62.66 62.98 61.84 61.17 58.50 58.24 59.63 61.11 60.66 60.14 59.79 59.57 60.73 59.06 59.20 58.37 56.85 55.28 54.73 54.00 51.05 49.47 48.99 49.83 50.39 49.95 49.26 49.22 49.55 49.84 49.62 49.77 49.47 49.27 49.22
64.81 63.26 62.73 63.43 63.80 62.97 62.75 62.92 60.99 56.60 61.49 61.34 61.05 60.49 60.44 60.61 58.94 60.47 59.00 59.63 60.03 58.95 58.01 57.78 56.13 54.69 54.24 52.14 50.01 49.21 49.79 50.57 49.73 49.56 49.69 49.00 49.54 49.35 49.79 49.67 49.38 49.33 49.39
63.56 62.69 62.32 61.44 61.84 61.93 61.40 61.23 60.62 61.00 61.17 60.65 59.89 59.84 59.74 59.46 57.58 58.73 60.44 59.56 56.46 57.27 57.09 56.86 55.74 54.16 52.86 50.89 49.52 48.63 37.52 34.91 43.47 34.90 47.26 49.17 49.95 50.13 49.79 48.92 48.91 48.97 49.39
60.82 62.17 62.61 62.53 61.11 60.77 60.12 59.91 60.05 60.08 59.79 59.55 60.16 60.47 59.26 58.64 58.29 58.48 58.60 57.87 56.75 56.04 56.60 56.76 55.32 54.01 52.23 50.41 48.93 35.99 30.36 33.42 39.50 31.84 42.84 46.80 49.34 49.45 48.28 47.87 48.82 48.46 48.60
MSLP
1006.01 1006.80 1007.62 1008.28 1008.88 1009.48 1009.75 1009.96 1010.41 1010.99 1011.53 1012.10 1012.55 1013.02 1013.33 1014.02 1014.32 1014.40 1015.81 1015.78 1015.89 1016.35 1016.84 1016.70 1016.63 1016.71 1016.61 1016.10 1015.84 1015.82 1015.89 1015.89 1015.73 1015.70 1015.81 1015.80 1015.92 1015.91 1015.78 1015.74 1015.64 1015.50 1015.29
1004.94 1005.86 1006.55 1007.25 1007.86 1008.31 1008.94 1009.27 1009.86 1010.45 1010.92 1011.54 1012.12 1012.27 1012.79 1012.97 1013.63 1014.15 1014.51 1014.94 1015.36 1015.66 1016.04 1016.23 1016.19 1016.12 1016.32 1016.31 1016.10 1015.92 1015.75 1015.94 1015.96 1015.58 1015.49 1015.46 1015.41 1015.26 1015.03 1014.98 1014.80 1014.61 1014.34
1003.87 1004.75 1005.51 1006.09 1006.67 1007.21 1007.89 1008.42 1009.07 1009.72 1010.28 1010.96 1011.36 1012.05 1012.30 1012.70 1012.82 1012.96 1013.28 1014.55 1014.90 1014.98 1015.34 1015.63 1015.73 1015.87 1016.06 1015.89 1015.90 1015.91 1015.82 1015.60 1015.42 1015.46 1015.22 1015.23 1015.30 1015.10 1014.83 1014.43 1014.46 1014.44 1014.07
1002.43 1003.28 1004.09 1004.87 1005.57 1006.27 1006.83 1007.56 1008.15 1009.02 1009.50 1009.92 1010.57 1011.56 1011.96 1012.41 1012.41 1012.58 1012.59 1013.55 1014.28 1014.47 1014.86 1015.08 1015.17 1015.50 1015.80 1015.98 1016.11 1016.05 1015.86 1015.73 1015.36 1015.08 1014.79 1014.94 1014.82 1014.31 1014.10 1013.64 1013.96 1013.90 1013.48
1001.02 1002.00 1002.80 1003.89 1004.77 1005.48 1006.01 1006.60 1007.48 1008.22 1008.96 1009.63 1009.92 1010.69 1011.38 1011.88 1012.07 1012.18 1012.09 1012.60 1013.58 1014.05 1014.27 1014.59 1014.84 1015.08 1015.35 1015.49 1015.63 1015.70 1015.72 1015.63 1015.15 1014.83 1014.54 1014.33 1013.93 1013.69 1013.80 1013.63 1013.51 1013.10 1012.70
1000.05 1000.77 1001.76 1002.91 1003.95 1004.61 1005.28 1006.08 1007.19 1008.02 1008.87 1009.59 1010.10 1010.67 1010.82 1011.08 1011.24 1011.66 1011.80 1012.32 1012.84 1013.27 1013.61 1013.81 1014.10 1014.39 1014.59 1014.79 1015.11 1015.34 1015.89 1016.11 1015.71 1015.33 1014.71 1014.32 1014.24 1014.11 1013.88 1013.96 1013.65 1012.99 1012.08
999.46 1000.14 1001.06 1002.15 1003.05 1004.03 1005.01 1005.88 1006.70 1007.60 1008.33 1008.61 1009.11 1010.18 1010.84 1011.06 1011.37 1011.50 1011.78 1011.97 1012.23 1012.75 1013.26 1013.60 1013.67 1013.65 1014.08 1014.35 1014.60 1014.82 1014.86 1015.24 1015.23 1014.90 1014.65 1014.41 1014.27 1014.01 1014.06 1013.78 1013.29 1013.03 1012.42
999.25 1000.06 1000.82 1001.74 1002.88 1003.84 1004.59 1005.42 1006.36 1007.15 1007.60 1008.42 1008.93 1009.32 1010.01 1010.75 1011.19 1011.22 1011.57 1011.96 1012.12 1012.28 1012.34 1012.63 1013.12 1013.55 1013.91 1014.22 1014.14 1014.33 1014.32 1013.93 1013.95 1014.05 1013.98 1013.87 1013.80 1013.79 1013.98 1013.77 1013.49 1012.98 1012.15
999.36 1000.26 1001.00 1001.81 1002.70 1003.67 1004.59 1005.36 1006.11 1006.60 1006.96 1007.79 1008.97 1008.84 1009.09 1009.78 1010.31 1010.81 1011.32 1011.43 1011.81 1011.86 1011.93 1012.26 1012.58 1013.29 1013.74 1013.58 1013.54 1013.48 1013.44 1013.16 1012.88 1013.04 1013.04 1013.33 1013.59 1013.62 1013.64 1013.48 1012.68 1011.70 1010.90
999.25 1000.19 1001.08 1001.94 1002.68 1003.46 1004.40 1005.33 1006.03 1006.59 1007.17 1007.49 1008.04 1008.54 1008.91 1009.18 1009.76 1010.33 1010.81 1011.07 1011.07 1011.02 1011.47 1011.92 1012.82 1013.01 1013.22 1013.30 1013.40 1013.39 1013.16 1012.80 1012.44 1012.41 1012.80 1013.05 1012.84 1012.43 1012.54 1012.54 1011.81 1011.18 1010.64
999.22 1000.12 1001.07 1001.99 1002.77 1003.48 1004.39 1005.17 1005.83 1006.53 1007.03 1007.54 1007.96 1007.96 1008.21 1008.56 1009.09 1009.98 1010.69 1010.79 1010.16 1010.01 1010.98 1011.50 1011.84 1012.45 1013.06 1013.43 1013.53 1013.20 1012.99 1013.06 1012.68 1012.70 1012.30 1011.65 1010.97 1010.87 1010.53 1010.56 1011.03 1010.76 1010.18
999.28 1000.18 1001.16 1002.06 1002.72 1003.52 1004.35 1005.02 1005.77 1006.48 1007.10 1007.42 1007.70 1007.73 1007.67 1008.40 1008.93 1009.83 1010.42 1010.86 1010.75 1010.57 1010.67 1010.97 1011.42 1012.28 1012.99 1013.21 1013.20 1013.05 1013.22 1013.24 1012.65 1012.03 1011.19 1010.53 1010.38 1010.23 1010.16 1010.31 1010.52 1010.38 1009.98
999.77 1000.49 1001.43 1002.48 1003.19 1003.83 1004.54 1005.32 1006.07 1006.78 1007.23 1007.33 1007.43 1007.26 1007.52 1008.45 1009.27 1010.07 1010.52 1010.87 1010.89 1011.10 1011.27 1011.61 1012.00 1012.53 1012.69 1012.95 1013.15 1013.43 1013.37 1012.80 1012.05 1011.15 1010.63 1010.53 1010.47 1010.39 1010.50 1010.15 1009.57 1009.14 1008.78
1000.66 1001.52 1002.12 1002.89 1003.56 1004.33 1005.04 1005.80 1006.32 1006.66 1006.95 1006.86 1007.05 1007.36 1007.78 1008.28 1009.01 1009.71 1010.70 1010.87 1011.06 1011.27 1011.65 1011.57 1011.78 1011.90 1012.23 1012.54 1012.56 1012.73 1012.45 1012.00 1011.30 1011.29 1011.16 1010.75 1010.46 1010.25 1009.89 1009.57 1009.08 1008.76 1008.37
1000.92 1001.83 1002.37 1002.92 1003.65 1004.63 1005.65 1006.57 1006.73 1006.96 1007.17 1006.83 1006.62 1007.15 1007.70 1008.38 1009.03 1009.21 1009.85 1010.30 1009.82 1010.35 1010.43 1010.38 1010.75 1010.61 1010.36 1010.55 1010.74 1011.13 1011.41 1010.99 1010.97 1010.87 1010.72 1010.56 1010.35 1010.08 1009.77 1009.42 1009.09 1008.73 1008.03
1001.00 1001.65 1002.24 1002.77 1003.47 1004.36 1005.37 1006.85 1007.87 1007.86 1007.93 1007.58 1007.37 1007.79 1008.43 1008.80 1009.37 1009.73 1010.04 1010.33 1010.37 1010.57 1010.40 1010.01 1009.38 1009.26 1009.26 1009.53 1009.89 1010.16 1010.33 1010.47 1010.57 1010.69 1010.80 1010.64 1010.26 1010.04 1009.69 1009.40 1008.96 1008.50 1007.90
1000.72 1000.93 1001.36 1001.53 1002.20 1003.15 1003.71 1004.60 1006.20 1008.01 1007.99 1008.06 1008.32 1008.54 1008.50 1009.57 1009.81 1010.02 1010.21 1010.46 1010.66 1010.85 1010.38 1009.21 1008.94 1009.16 1009.31 1009.54 1009.83 1010.10 1010.27 1010.29 1010.88 1010.91 1010.62 1010.50 1010.23 1009.84 1009.54 1009.14 1008.70 1008.26 1007.71
1000.66 1001.19 1001.19 1000.83 1001.47 1002.07 1002.75 1003.53 1004.08 1005.58 1006.67 1007.93 1009.02 1009.17 1009.46 1009.72 1009.98 1010.25 1010.53 1010.78 1010.91 1010.74 1009.75 1008.92 1008.85 1009.06 1009.43 1009.88 1010.13 1010.21 1010.30 1010.43 1010.44 1010.49 1010.53 1010.36 1009.98 1009.64 1009.34 1008.94 1008.51 1008.01 1007.57
1000.72 1001.20 1001.13 1000.94 1001.27 1001.87 1002.48 1002.98 1003.30 1003.88 1004.64 1006.64 1008.60 1009.61 1010.31 1010.49 1010.69 1010.92 1011.01 1010.37 1009.10 1008.68 1008.50 1008.76 1009.07 1009.39 1009.56 1009.94 1010.31 1010.50 1010.84 1010.88 1010.92 1011.10 1010.66 1010.10 1009.82 1009.58 1009.18 1008.76 1008.31 1007.79 1007.26
1000.86 1001.21 1001.02 1001.23 1001.91 1002.29 1002.59 1002.65 1002.91 1003.43 1004.06 1005.90 1006.94 1008.18 1009.61 1010.46 1010.43 1010.34 1009.99 1009.34 1008.90 1008.65 1008.48 1008.94 1009.20 1009.63 1009.96 1010.32 1010.57 1010.76 1010.90 1010.63 1010.48 1010.40 1010.12 1010.06 1009.81 1009.59 1009.05 1008.66 1008.06 1007.44 1006.72
1000.81 1001.52 1001.43 1001.23 1001.68 1002.02 1002.25 1002.51 1002.66 1003.02 1003.37 1004.25 1005.17 1006.35 1007.82 1008.57 1008.13 1008.08 1008.09 1008.40 1008.66 1008.52 1008.75 1009.13 1009.28 1009.70 1010.11 1010.54 1010.84 1010.90 1010.71 1010.36 1010.27 1010.35 1010.23 1010.03 1009.87 1009.47 1009.00 1008.52 1007.85 1007.24 1006.59
1000.38 1001.13 1001.38 1001.24 1001.53 1002.19 1002.41 1002.50 1002.69 1002.95 1003.32 1004.12 1005.82 1006.99 1007.39 1007.51 1007.33 1007.27 1007.60 1008.04 1008.14 1008.53 1008.71 1009.25 1009.48 1009.45 1009.75 1010.09 1010.54 1010.76 1010.50 1010.26 1010.31 1010.43 1010.48 1010.25 1009.83 1009.36 1009.08 1008.48 1007.80 1007.24 1006.82
1000.66 1000.76 1001.21 1001.47 1001.97 1002.72 1002.92 1002.75 1002.86 1003.28 1003.62 1004.49 1005.84 1006.69 1007.25 1006.88 1006.97 1007.21 1007.67 1007.93 1008.20 1008.45 1008.81 1009.26 1009.51 1009.66 1009.81 1010.37 1010.75 1010.81 1010.49 1010.20 1010.52 1010.82 1010.82 1010.50 1009.93 1009.50 1009.38 1008.55 1007.91 1007.42 1007.12
1001.18 1001.16 1001.56 1001.97 1002.28 1002.34 1002.19 1002.82 1003.38 1003.67 1003.90 1004.34 1005.04 1005.79 1006.48 1006.69 1007.07 1007.12 1007.37 1007.74 1007.97 1008.47 1008.85 1009.11 1009.47 1009.55 1009.78 1010.52 1010.52 1010.67 1010.57 1010.84 1011.37 1011.12 1011.33 1010.89 1010.20 1009.82 1009.54 1008.74 1008.16 1007.89 1007.30
1001.49 1001.74 1001.97 1002.07 1002.19 1002.53 1002.52 1002.69 1002.89 1003.32 1003.73 1004.41 1005.02 1005.49 1005.95 1006.44 1006.87 1006.87 1007.20 1008.12 1008.69 1008.64 1008.79 1008.97 1009.28 1009.55 1010.13 1010.53 1010.53 1010.78 1012.01 1012.22 1012.24 1012.77 1011.80 1011.18 1010.47 1010.09 1009.29 1008.94 1008.63 1008.06 1007.65
1001.94 1001.90 1002.18 1002.43 1002.69 1002.72 1002.77 1002.74 1002.63 1002.91 1003.44 1003.92 1004.00 1004.52 1005.04 1005.41 1005.88 1006.37 1006.94 1007.53 1007.88 1008.22 1008.28 1008.35 1008.94 1009.51 1009.94 1010.34 1010.69 1011.83 1012.29 1012.55 1012.63 1012.94 1012.57 1011.57 1010.51 1009.91 1010.06 1009.53 1008.94 1008.39 1008.07
Wind_Speed
18 17 16 16 17 15 13 13 12 10 12 9 13 13 12 11 11 11 8 7 6 8 8 7 7 6 7 7 6 7 6 6 9 7 9 9 8 8 9 7 10 9 10
18 17 17 16 17 17 16 15 14 14 13 13 14 13 13 12 9 12 12 10 10 9 9 9 10 9 8 8 7 7 6 5 7 9 9 9 9 10 8 8 9 11 11
19 20 18 18 18 17 17 16 17 16 15 16 16 14 14 14 13 13 12 7 11 10 9 10 9 9 7 7 7 7 7 6 6 9 9 5 6 4 12 8 5 8 8
22 21 19 19 18 17 16 17 16 16 17 17 17 15 14 14 13 12 13 12 10 10 10 9 9 8 8 8 9 7 9 9 10 8 9 9 9 9 11 7 8 5 10
19 19 18 17 16 15 16 16 16 16 17 17 17 15 14 14 12 11 11 11 11 11 10 9 10 11 11 8 6 7 8 9 10 10 9 9 10 9 10 9 11 10 8
18 19 17 17 16 16 15 14 13 15 15 14 13 11 14 12 10 10 11 11 11 9 10 11 10 7 9 9 8 7 5 9 11 10 10 11 11 9 10 9 10 12 12
15 15 13 15 16 15 13 13 14 14 16 16 16 14 13 12 8 12 12 11 11 10 10 10 11 10 8 9 8 9 8 13 17 10 11 11 10 10 11 11 11 11 12
14 12 13 13 14 12 12 14 13 13 16 14 14 13 10 9 9 9 10 12 10 10 11 11 10 10 9 6 7 8 10 11 11 10 11 10 10 9 9 10 11 12 13
14 13 13 14 14 14 15 15 13 12 12 14 13 10 12 12 12 14 13 11 11 13 12 11 10 7 11 10 8 7 7 8 9 12 6 5 8 12 14 9 10 11 11
15 15 13 13 13 14 13 11 9 9 9 10 13 8 9 9 12 15 15 8 11 9 10 7 6 11 10 11 8 7 9 10 11 10 7 9 14 15 20 15 12 11 11
14 14 14 13 12 11 10 8 8 7 6 7 8 8 9 9 9 11 14 9 11 8 7 8 8 15 10 7 5 7 7 7 7 9 11 12 10 9 9 5 9 9 10
13 14 13 12 9 7 9 9 8 7 7 8 8 8 7 7 2 11 8 10 5 4 5 5 4 10 8 7 6 2 2 5 8 10 11 9 9 9 9 8 9 11 11
12 13 11 9 6 10 8 9 6 5 5 8 8 8 4 5 4 5 8 8 6 5 3 4 11 8 6 5 7 5 6 8 9 10 8 9 9 9 8 11 11 10 10
11 10 9 9 9 9 7 6 5 8 8 8 5 3 3 4 7 6 3 5 5 6 8 8 5 2 2 2 7 8 7 8 6 7 8 8 8 9 9 9 10 10 11
11 10 9 10 10 8 6 2 1 6 4 4 4 5 5 5 4 8 5 8 8 4 8 7 7 8 9 9 7 6 8 7 6 6 8 8 9 9 9 9 10 10 11
11 10 10 9 8 9 8 7 12 10 7 10 11 6 6 8 12 14 12 11 11 7 3 7 7 6 7 5 4 4 5 4 6 6 7 9 8 9 9 9 10 10 10
10 9 8 8 12 11 8 9 8 6 12 13 10 8 6 13 11 12 11 11 8 3 7 7 6 5 6 5 5 5 6 5 5 7 8 8 8 8 8 9 9 9 9
8 3 9 6 7 7 7 7 8 9 7 7 9 6 9 10 9 9 9 6 4 6 7 5 4 4 4 4 5 5 5 6 6 7 7 8 8 7 8 8 9 9 10
8 7 6 7 7 6 6 6 6 6 6 11 8 5 6 9 8 5 2 7 7 5 3 3 3 4 4 3 4 4 5 6 6 7 7 7 7 7 8 8 9 9 10
4 4 5 7 8 6 6 6 6 4 6 9 8 8 9 7 7 8 7 7 6 5 3 3 2 3 3 3 4 4 6 6 6 5 6 6 6 7 8 9 9 10 9
8 7 3 4 5 6 6 6 6 6 6 6 7 11 16 10 9 6 7 6 5 5 4 3 3 2 3 3 4 5 6 6 4 4 5 6 6 7 7 8 9 10 10
6 7 9 7 6 5 5 4 4 5 3 2 9 10 16 9 6 4 4 4 5 5 4 3 4 3 4 3 4 5 7 5 4 4 5 6 6 7 7 9 9 9 10
5 6 3 3 4 3 5 5 4 1 2 7 8 9 8 5 6 4 3 3 2 4 4 3 4 5 3 2 4 5 6 4 4 4 6 6 7 7 8 8 9 9 9
1 5 4 3 2 4 5 2 4 3 2 3 2 3 3 2 3 3 4 4 3 1 4 3 4 5 1 2 4 5 4 3 5 6 8 7 7 7 8 8 8 11 8
2 4 4 2 6 7 6 7 6 7 4 2 4 6 7 5 5 4 2 1 4 7 4 4 4 5 4 5 8 7 7 9 5 7 7 9 9 9 7 8 8 10 8
3 2 1 1 3 3 5 6 6 5 8 10 9 11 10 9 8 8 7 6 4 7 9 5 5 5 4 5 5 12 7 5 2 3 6 7 9 6 7 9 9 9 8
Wind_Direction
196 192 195 200 201 202 217 202 202 204 183 200 184 192 187 186 186 171 240 270 212 209 243 276 262 268 271 290 317 330 325 309 320 325 328 322 330 298 279 271 271 273 273
195 194 193 198 201 201 206 207 197 200 191 198 195 199 190 183 174 181 196 223 217 229 234 234 243 242 213 229 254 255 269 295 275 295 287 288 280 288 263 263 257 272 282
196 194 198 200 200 204 198 203 202 201 191 202 197 203 191 197 188 188 183 197 234 235 229 233 234 244 256 276 296 300 292 285 304 295 302 313 312 310 288 278 262 260 269
192 200 198 202 202 201 200 200 206 195 199 201 196 198 196 201 193 196 186 201 229 230 228 236 236 247 249 245 254 262 260 262 271 273 269 269 260 268 257 288 282 269 266
191 196 199 195 200 202 205 201 197 196 206 201 196 187 197 202 204 204 198 198 218 229 235 226 231 237 250 262 271 273 305 292 292 300 297 292 285 306 319 309 299 305 294
188 199 193 185 191 201 201 200 194 208 214 210 199 201 197 217 206 181 191 211 221 222 224 221 234 212 226 220 231 240 260 279 276 279 287 289 295 298 297 295 289 290 301
202 194 192 181 189 192 192 197 196 205 212 205 199 200 222 229 237 194 197 219 220 217 219 226 237 242 209 246 226 219 230 245 236 250 265 273 297 294 294 290 288 300 290
188 194 185 188 187 191 190 193 192 209 209 213 205 209 224 241 225 186 179 221 230 239 243 228 227 248 244 221 241 247 243 253 237 235 237 249 264 297 303 291 287 277 270
181 190 191 190 190 194 202 204 205 207 204 207 217 213 208 227 185 173 181 215 224 230 234 242 237 237 248 219 214 230 249 257 261 235 237 277 257 251 252 277 275 284 291
178 183 184 186 192 198 198 201 203 213 214 214 217 205 217 231 173 183 193 206 228 221 209 226 243 249 174 185 216 234 258 268 274 286 241 248 244 246 237 235 251 277 296
169 172 176 182 189 188 189 193 191 202 190 203 215 216 227 225 198 187 196 211 242 212 212 220 221 171 177 186 230 264 280 323 288 280 268 260 264 280 276 247 218 260 287
158 165 167 173 182 153 165 180 177 179 197 209 214 230 239 240 221 184 198 231 337 272 271 288 138 152 171 176 205 198 186 278 269 268 267 282 294 297 304 331 322 286 273
154 153 151 135 156 132 164 147 152 175 198 213 215 232 240 236 135 129 181 215 206 239 9 88 118 164 149 218 239 231 243 260 260 270 295 305 307 316 308 272 270 282 275
139 141 144 148 137 133 140 149 161 182 206 223 221 222 220 173 160 152 188 193 187 168 159 159 127 135 286 96 140 201 235 252 297 319 293 290 303 297 303 306 309 311 307
148 143 139 141 143 126 79 60 215 56 336 271 184 174 191 177 171 151 158 203 187 197 178 170 208 213 225 207 199 197 214 253 271 296 300 309 303 304 308 316 317 304 303
148 150 151 147 148 149 149 124 51 50 52 47 45 29 94 79 114 108 102 87 79 54 209 255 264 270 274 290 290 273 270 269 267 299 316 297 306 309 314 317 302 312 311
159 151 159 180 167 174 175 165 167 85 65 55 50 60 91 126 122 110 103 97 84 92 245 266 279 298 302 309 303 295 298 307 4 283 286 304 302 306 309 313 314 316 321
130 42 164 182 166 159 156 178 169 159 172 135 52 70 93 117 114 118 126 143 177 212 251 282 300 294 289 297 300 300 304 313 308 311 314 300 303 313 312 312 318 325 321
167 180 207 172 157 137 161 178 196 170 185 123 132 126 87 60 68 82 166 257 279 291 273 238 276 303 299 287 287 301 313 299 321 312 287 295 316 313 314 318 317 314 299
145 67 198 156 134 174 166 196 184 194 185 142 156 160 154 160 187 196 212 234 258 262 254 266 284 304 303 299 300 307 287 278 281 284 306 317 308 316 316 320 323 320 326
158 166 334 190 156 181 177 199 191 197 205 179 192 151 164 192 219 199 192 197 246 260 219 255 297 272 257 268 279 282 281 277 290 298 309 313 322 312 319 321 319 325 335
168 157 197 191 171 156 198 195 192 204 218 165 118 137 159 209 241 241 233 193 216 229 283 212 274 258 245 296 326 293 276 278 292 320 323 316 321 315 340 318 327 330 337
158 174 155 183 113 126 182 243 226 225 231 92 140 151 190 224 241 254 180 213 203 225 211 239 257 270 224 250 273 273 275 310 1 346 318 319 319 343 317 327 330 338 340
166 173 111 161 55 246 217 171 86 57 272 198 150 153 199 251 273 249 167 180 234 244 235 219 255 280 302 262 255 252 251 24 2 332 357 314 314 338 318 324 352 323 342
168 186 210 200 202 208 223 235 191 219 176 233 189 209 199 186 209 196 158 172 237 244 204 232 251 231 220 253 284 91 78 61 15 338 299 315 309 306 335 325 2 315 358
148 122 294 289 263 290 296 296 296 204 194 203 223 183 191 198 201 205 199 203 219 209 228 203 222 237 235 216 234 103 103 78 24 355 308 291 297 327 11 317 357 323 351